User: anonymous   Login
Location: Unspecified
(0.0000°N, 0.0000°E)
Time: 06:50:33
(UTC+00:00)
Language:

Optus B3 - Orbit

View from above orbital plane
View from above orbital plane
View from above satellite
View from above satellite

Ground track
Ground track

The orbit data is extracted from the following two-line orbital elements,

1 23227U 94055A   15240.36213668 -.00000095  00000-0  00000+0 0  9990
2 23227 006.3185 055.3517 0004517 117.8334 097.6770 01.00273278 76875
Epoch (UTC): 28 August 2015 08:41:28
Eccentricity: 0.0004517
inclination: 6.3185°
perigee height: 35767 km
apogee height: 35805 km
right ascension of ascending node: 55.3517°
argument of perigee: 117.8334°
revolutions per day: 1.00273278
mean anomaly at epoch: 97.6770°
orbit number at epoch: 7687

The dashed part of the orbit path shows where the satellite is in the earth's shadow,  

DLR